Wind_Speed
24 25 24 25 25 26 25 24 24 25 26 26 25 25 25 26 26 26 26 26 26 25 25 25 25 26 28 29 31 32 33 34 35 36 36 36 37 37 38 38 38 38 38 39 39 39 39 39 39 39 39 40 40 40 40 40 40 39 39 39 39 38 38 38 38 37 37 37 36 37 37 37 37 37 38 38 38 37 37 37 38 38 39 38 37 36
25 25 25 24 25 25 26 25 24 24 26 27 27 27 27 27 27 27 26 24 23 23 23 24 26 28 30 32 32 33 34 34 34 35 35 35 36 36 36 37 37 38 38 39 39 39 39 39 39 39 39 39 39 39 39 39 38 38 38 38 38 38 37 37 37 37 36 36 36 36 37 37 37 38 38 38 37 37 37 38 38 38 38 37 36 35
26 26 25 24 24 24 25 26 26 25 26 27 27 27 27 27 27 25 23 22 22 22 22 26 29 31 32 32 32 32 32 32 33 33 34 34 35 36 36 37 38 38 38 39 39 39 39 38 38 38 38 38 38 38 38 38 38 38 38 38 37 37 37 38 37 37 37 36 36 36 37 38 38 38 38 37 37 37 38 38 37 36 36 35 35 34
25 25 26 25 24 24 25 26 27 26 26 26 26 27 26 25 23 22 21 21 22 24 26 28 30 30 30 30 30 30 30 31 32 33 34 34 35 36 37 38 38 38 38 38 38 38 37 37 37 37 37 37 37 37 38 38 38 38 38 38 38 38 38 37 37 37 36 36 36 36 36 36 36 35 35 35 35 36 36 36 35 34 33 33 32 32
24 25 26 26 25 25 26 26 26 27 26 26 25 24 23 21 20 20 21 22 24 27 28 28 28 28 28 28 29 29 30 31 32 33 35 36 36 37 37 38 38 37 37 37 36 36 36 36 36 36 37 37 37 37 37 38 38 38 37 37 37 37 37 36 36 36 35 35 35 34 34 33 32 32 32 32 32 33 33 33 33 32 31 32 32 32
25 25 25 26 26 26 26 26 26 26 25 24 23 21 20 19 20 21 22 25 27 28 28 27 27 27 27 28 29 30 31 32 33 34 35 36 36 36 36 36 36 35 35 35 35 35 35 35 36 36 37 37 37 37 37 37 37 37 37 37 37 36 36 36 36 35 35 35 35 34 34 33 33 32 32 32 32 33 33 33 33 33 33 33 33 34
26 25 25 25 26 27 26 26 25 25 23 22 21 20 20 21 22 23 25 26 26 27 27 27 27 27 27 28 29 30 31 33 33 34 34 34 34 34 34 34 34 34 34 34 34 34 35 35 36 37 37 38 38 38 38 38 38 38 37 37 37 36 36 36 36 36 36 36 37 36 36 36 35 35 34 34 34 34 34 35 35 35 35 35 35 35
26 27 26 26 26 27 26 25 23 21 20 19 20 21 22 24 25 26 26 26 25 26 27 28 28 28 28 28 29 30 31 31 32 32 32 32 32 32 32 32 32 33 33 33 34 34 35 36 37 38 38 38 38 38 38 38 38 38 38 37 37 37 37 37 37 37 37 37 37 37 37 37 37 36 36 36 35 35 35 35 36 36 36 36 36 36
25 27 27 27 26 25 25 23 21 18 17 18 20 22 25 26 27 27 27 27 26 26 27 28 29 29 29 29 29 29 30 30 31 31 31 31 31 31 31 31 32 32 33 34 34 35 36 37 37 38 38 38 38 38 38 38 38 38 38 38 37 37 37 37 36 36 36 36 36 36 36 36 36 36 36 36 36 35 35 35 36 36 36 36 37 37
26 26 27 26 24 21 19 19 19 17 17 19 21 22 23 24 26 27 28 28 28 28 27 28 28 29 30 29 29 29 30 30 30 30 30 30 30 31 31 32 32 33 33 34 35 35 36 37 37 37 38 38 38 38 38 38 38 38 38 37 37 36 36 36 36 36 35 35 35 35 35 35 35 35 35 35 35 35 35 35 35 35 36 36 36 37
25 25 24 22 19 16 15 16 18 20 21 23 24 24 24 24 25 26 27 28 29 29 28 28 28 28 29 29 29 29 29 29 29 29 29 28 29 29 30 31 31 32 32 33 34 35 35 36 36 36 36 36 37 37 37 37 37 36 36 36 36 35 35 35 35 35 35 35 34 34 34 34 34 34 34 34 34 34 34 34 34 35 35 35 36 36
23 21 19 15 14 15 17 19 22 24 25 25 25 26 26 26 26 26 25 26 28 29 29 29 28 28 28 28 28 28 28 27 27 27 27 26 26 26 27 28 29 29 30 31 32 32 33 33 33 34 34 35 35 35 35 35 35 35 35 35 35 35 35 35 35 35 34 34 34 34 34 34 34 34 34 33 33 33 33 34 34 34 34 35 35 36
19 16 14 13 15 18 21 23 25 26 26 25 24 24 24 26 26 26 26 26 27 28 28 29 29 29 28 27 26 25 25 25 26 26 26 25 25 25 25 27 28 28 28 29 29 30 30 31 31 32 32 33 33 33 33 34 34 34 34 34 34 34 34 34 34 34 34 34 34 34 34 34 34 34 34 34 34 34 34 34 34 34 34 35 35 36
13 12 14 17 20 22 24 25 25 25 25 25 24 24 25 26 26 26 26 27 27 28 28 29 29 28 27 25 23 23 23 24 25 25 25 25 25 25 25 27 28 28 28 28 29 29 29 29 30 30 31 31 31 32 32 32 32 33 33 33 34 34 34 34 35 35 35 35 35 35 35 35 35 35 35 35 35 35 35 35 35 35 35 35 36 36
13 16 18 19 21 23 24 25 25 25 25 25 25 25 26 26 26 25 25 25 26 27 27 27 27 27 26 24 23 23 23 24 25 25 26 27 27 27 26 27 29 29 29 29 29 29 29 29 29 29 29 30 30 31 31 32 32 33 33 34 34 35 35 35 35 36 36 36 36 35 35 35 35 35 35 36 36 35 35 35 36 36 36 36 37 37
18 19 19 19 21 23 24 25 25 25 25 25 25 25 24 25 25 25 25 25 25 25 23 23 22 23 25 26 25 23 23 24 24 25 26 28 29 28 27 28 29 29 29 29 29 29 29 28 28 28 28 29 30 30 31 32 33 34 35 35 36 36 36 36 36 36 36 35 35 35 35 35 35 35 35 36 36 36 36 36 37 37 37 37 37 38
20 20 20 20 21 23 25 25 24 24 24 24 24 24 24 25 25 25 24 23 22 21 20 18 13 10 15 25 27 25 24 24 24 25 27 29 30 29 28 27 27 28 29 29 28 28 27 27 26 27 27 28 29 31 32 33 34 35 36 36 36 36 36 36 36 35 35 35 35 35 35 35 35 35 36 36 36 37 37 37 37 37 37 37 38 38
21 21 22 22 22 23 24 24 23 23 23 24 24 25 26 26 26 24 22 20 18 18 18 18 15 10 8 14 23 28 25 25 25 26 27 29 30 30 27 26 26 28 28 28 27 27 27 27 27 28 29 30 32 33 34 34 35 35 35 35 35 35 35 35 35 35 35 35 35 35 35 35 35 35 35 36 36 36 37 37 37 37 37 37 38 38
22 23 23 22 22 23 23 22 22 22 23 24 25 25 25 26 24 21 18 18 19 19 20 19 19 19 17 20 25 29 27 26 26 26 26 28 29 29 27 26 25 26 27 28 27 27 26 27 28 29 30 31 32 33 33 34 34 34 34 35 35 35 35 35 36 36 36 36 36 36 36 36 36 36 36 36 36 36 36 36 36 36 37 37 38 38
24 24 23 22 22 22 22 22 23 24 24 25 25 24 23 22 21 21 22 22 23 23 24 22 21 22 23 25 28 30 28 27 26 25 26 27 29 29 27 25 25 26 27 27 27 26 25 27 28 29 29 30 30 31 32 32 33 33 34 35 35 36 36 36 36 37 37 37 37 37 36 36 36 36 36 36 36 36 36 36 37 37 37 37 38 38
24 24 23 23 22 21 22 24 25 26 26 26 24 22 21 20 21 22 24 24 25 25 25 22 22 23 25 27 29 30 29 26 25 24 25 26 27 26 25 24 24 25 26 27 27 26 25 26 26 26 28 29 30 31 32 33 34 35 35 36 36 36 36 36 36 36 36 37 36 36 36 36 36 36 36 36 36 36 36 37 37 37 37 37 38 38
24 24 24 24 23 23 23 25 27 27 26 25 22 20 20 22 24 25 27 26 25 24 24 23 24 26 27 29 30 30 28 25 23 22 22 20 22 26 25 24 24 24 26 27 27 26 25 26 27 28 29 30 32 33 33 34 35 35 36 36 36 36 36 36 36 36 36 36 36 36 36 36 36 36 37 37 37 37 37 37 37 37 38 38 38 38
24 24 25 24 24 24 24 25 25 24 23 22 22 22 22 24 26 26 27 26 26 26 26 26 27 28 28 28 28 27 26 23 22 22 20 14 17 24 26 24 23 24 25 26 27 27 27 28 29 30 30 31 32 33 33 34 34 35 35 35 35 35 35 36 36 36 36 36 36 36 36 36 36 37 37 37 37 37 38 38 38 38 38 39 39 39
24 24 24 24 25 25 25 25 24 24 24 25 26 26 26 26 27 27 27 27 27 27 26 26 26 26 26 26 26 25 24 22 21 20 19 15 17 23 25 24 23 24 26 28 28 28 28 29 29 30 30 30 31 32 32 33 33 33 34 34 34 34 35 35 35 35 35 35 35 35 36 36 36 37 37 37 37 37 38 38 38 39 39 39 39 39
24 24 24 25 26 25 25 25 27 28 28 28 28 28 27 28 27 27 26 26 25 24 23 23 22 22 23 24 25 24 24 22 20 19 19 18 21 24 26 24 23 24 27 29 29 28 28 29 30 30 29 30 30 31 31 32 32 32 33 33 33 33 33 33 34 34 34 35 35 35 36 36 36 36 37 37 37 37 37 38 38 38 38 39 39 40
25 25 25 25 25 26 28 29 30 30 30 29 28 27 27 27 26 25 24 23 22 21 20 18 16 17 22 22 22 23 23 22 21 20 20 19 20 23 25 24 23 24 26 29 29 28 28 29 30 30 30 29 29 29 30 30 30 31 31 31 31 32 32 33 33 34 35 35 36 36 36 36 37 37 37 37 37 37 37 37 38 38 38 39 39 40
24 23 24 25 26 27 28 29 29 29 28 27 26 26 26 26 25 23 22 21 20 20 18 13 11 14 18 18 19 22 23 23 22 21 20 20 19 20 22 24 24 24 26 28 29 29 28 29 29 29 29 28 27 27 27 27 28 29 29 30 31 32 33 33 34 35 35 36 36 36 36 36 36 37 37 37 37 37 37 38 38 38 38 39 39 39
20 21 23 25 26 27 27 27 27 27 26 26 25 25 25 24 22 20 19 20 21 20 18 12 10 10 10 12 17 23 24 23 22 20 20 19 16 17 22 24 25 24 25 27 29 29 28 26 26 26 26 25 25 25 25 26 27 28 30 31 32 32 33 33 34 34 34 34 35 35 35 36 36 36 37 37 37 37 38 38 38 38 39 38 36 36
20 22 24 25 25 25 25 25 25 25 24 24 24 23 22 21 20 19 20 21 21 19 18 16 14 11 11 16 21 23 23 22 21 20 19 18 17 18 23 24 24 24 24 25 27 28 26 24 23 22 23 23 24 25 26 27 28 29 30 30 31 31 31 31 32 32 32 33 33 34 34 35 35 36 36 37 37 37 37 38 38 38 37 36 35 34
22 23 24 24 24 23 23 23 23 23 22 22 22 21 20 19 19 19 21 21 20 18 17 18 17 16 16 16 15 15 16 20 20 20 20 17 16 18 23 23 23 23 23 20 18 17 19 21 21 21 21 23 24 25 26 27 27 27 28 28 28 28 29 29 30 30 31 32 32 33 34 34 35 35 36 36 37 37 38 38 38 37 35 34 33 33
23 23 23 23 23 22 22 22 21 21 21 21 20 20 19 18 18 19 19 19 18 18 18 18 18 18 17 10 6 5 7 18 23 22 21 18 17 19 22 22 22 23 22 18 10 6 11 13 20 25 23 24 25 27 28 27 27 26 26 27 27 27 27 28 29 29 30 31 31 32 32 33 33 34 35 35 36 36 37 37 37 36 34 33 32 32
23 23 22 22 22 21 21 20 20 20 20 19 19 19 19 18 18 18 18 18 18 18 19 19 19 19 18 14 10 9 9 20 25 25 23 19 19 21 22 21 21 23 23 21 15 9 8 6 16 27 27 27 27 28 28 27 26 26 26 26 26 27 28 28 28 28 29 29 30 30 31 32 32 33 34 34 35 36 36 37 36 35 34 32 31 31
22 22 22 21 21 21 20 19 19 19 19 19 19 19 19 18 18 18 18 18 18 19 19 19 19 19 19 19 18 18 20 24 26 25 24 20 19 20 22 22 21 22 24 23 21 18 12 9 16 24 27 28 27 27 27 26 26 25 25 25 25 26 27 27 27 27 28 28 29 30 30 31 32 32 33 34 34 35 35 35 35 34 33 32 30 29
21 21 21 21 20 20 19 19 19 19 19 19 19 19 19 19 19 19 19 19 19 20 20 20 19 19 19 19 19 21 24 26 26 26 24 22 21 21 23 22 22 22 22 21 21 20 18 18 19 20 22 27 28 28 26 26 25 24 24 24 24 25 26 26 27 27 27 28 28 28 29 30 31 31 31 32 32 33 33 33 34 34 33 32 31 30
21 21 20 20 19 19 19 19 19 19 19 19 19 19 19 19 20 20 20 20 21 21 22 22 21 21 20 19 19 20 24 27 28 27 26 24 23 23 23 22 22 21 20 19 19 17 14 18 21 20 18 21 24 27 26 25 24 24 24 23 24 24 25 26 26 27 27 27 27 28 29 30 30 30 30 30 31 31 32 33 33 34 34 34 34 32
20 19 19 19 19 19 19 19 19 19 19 19 19 20 20 21 21 21 22 22 22 23 23 23 23 23 23 22 21 22 25 29 30 29 28 26 25 24 22 22 22 21 19 19 19 16 12 14 19 22 18 13 16 22 26 26 25 24 24 24 24 24 25 25 25 25 26 26 27 28 29 29 29 29 30 30 31 32 33 34 35 35 36 36 36 36
19 19 19 19 19 19 19 19 19 19 20 20 20 21 21 21 22 23 23 23 24 24 24 24 24 24 24 24 25 26 28 30 31 31 31 30 29 27 24 23 23 23 20 19 19 18 16 12 13 15 14 11 10 14 23 27 27 26 25 24 24 24 25 25 25 24 25 25 27 28 29 29 28 29 30 31 32 32 32 33 33 34 35 35 36 37
18 18 19 19 18 18 19 19 19 20 20 20 21 22 22 23 23 23 23 23 24 24 25 25 25 25 26 27 28 30 31 32 33 34 34 33 31 28 25 23 24 23 21 20 19 19 17 13 11 11 10 11 15 20 24 25 26 26 26 26 26 25 24 24 23 23 24 25 27 28 29 29 29 29 30 30 30 30 30 30 31 31 31 32 33 34
18 18 18 19 19 19 19 19 20 20 21 21 22 22 23 23 23 23 23 22 22 23 23 24 24 26 27 29 29 30 30 31 32 33 33 32 30 28 26 24 23 23 23 22 21 20 18 14 11 10 10 11 15 21 25 25 24 25 26 27 27 26 24 23 23 23 24 26 27 29 29 29 29 29 29 29 28 27 27 28 28 28 28 28 29 30
18 18 19 19 19 19 19 20 20 21 22 22 22 22 22 22 22 23 22 22 22 22 23 24 24 24 25 25 26 27 28 29 30 30 30 30 30 28 26 24 23 23 23 22 21 20 19 17 17 17 17 14 13 17 22 24 24 25 25 23 23 25 27 26 26 26 26 26 26 27 27 28 28 28 28 28 27 27 27 27 28 28 28 26 25 25
18 18 19 20 20 20 20 20 21 21 22 22 22 22 21 21 21 22 23 23 23 23 22 22 23 23 24 25 25 25 25 26 27 27 28 28 29 28 27 25 24 23 23 22 21 20 19 19 19 20 20 20 20 20 22 24 25 25 24 20 21 24 28 28 27 25 25 25 25 26 27 28 29 29 28 28 28 28 29 29 29 29 29 28 26 24
19 19 19 20 20 20 21 21 21 21 21 21 20 20 20 20 21 21 22 23 23 23 23 23 22 23 25 25 24 23 23 24 24 25 26 26 27 27 26 26 25 24 23 22 22 21 21 21 21 20 20 20 19 18 19 23 25 25 23 22 24 26 27 27 25 23 23 25 26 28 28 28 28 28 28 28 29 29 30 31 31 31 30 29 28 27
19 19 20 20 21 21 22 22 21 21 20 20 20 20 20 20 21 21 22 22 23 23 23 22 21 22 22 23 24 24 23 23 23 23 23 24 25 25 24 24 24 24 23 22 21 21 22 22 21 20 21 21 19 18 17 21 24 24 24 23 23 20 16 21 25 27 26 27 27 28 27 27 28 29 29 29 29 30 30 30 30 31 30 30 29 28
19 19 20 20 21 21 21 21 21 20 20 20 20 20 20 20 20 21 21 21 22 22 22 21 21 21 20 21 22 24 24 23 22 22 22 22 22 22 22 23 23 23 22 21 20 20 21 21 21 21 21 20 19 18 18 20 21 23 23 24 23 20 16 19 25 28 29 29 28 28 28 29 29 30 30 29 29 28 28 28 29 29 30 31 30 28
19 19 20 20 20 20 20 20 20 20 20 20 20 20 20 20 20 20 21 21 22 22 21 20 20 18 18 19 21 23 23 23 23 22 21 21 21 21 21 21 22 22 22 22 21 20 19 19 20 22 21 20 19 19 19 19 20 22 23 24 23 23 24 25 26 26 26 28 29 30 31 31 31 29 28 28 27 27 26 26 26 27 28 29 28 27
19 19 20 20 20 20 20 20 20 20 20 20 20 20 20 20 20 20 21 21 21 21 21 20 18 17 16 18 20 21 21 22 23 22 21 20 20 20 20 20 20 21 21 22 22 22 21 20 21 21 21 20 19 19 19 19 19 19 21 22 23 23 24 24 25 25 25 27 28 30 33 33 31 29 26 26 27 27 26 26 26 26 26 27 27 26
19 19 19 20 20 20 20 20 20 20 20 21 20 20 20 20 20 20 21 20 20 20 20 20 19 17 17 18 19 19 19 20 22 22 22 21 20 20 20 20 21 21 21 22 22 22 22 23 23 22 20 17 16 17 18 18 18 18 19 21 22 22 22 23 24 25 26 26 28 31 34 33 31 28 26 26 26 26 25 25 25 25 25 26 26 26
19 19 20 20 20 20 20 20 20 20 20 21 21 21 21 21 20 20 20 20 20 19 19 19 18 18 18 19 19 19 19 19 20 22 22 22 21 21 21 21 21 21 21 21 21 22 23 24 24 24 22 18 15 15 16 17 18 18 19 20 21 21 21 23 25 26 26 27 29 32 33 30 27 25 24 24 23 24 25 26 25 25 25 25 25 26
19 19 20 20 20 20 20 20 20 20 21 21 22 22 22 22 21 20 20 20 20 19 18 18 18 18 18 19 19 20 20 20 20 21 21 21 21 21 21 22 22 21 21 21 21 21 21 21 21 21 20 20 18 16 16 17 18 19 20 20 20 20 21 23 25 26 26 28 30 32 31 29 27 25 24 21 18 20 24 26 25 25 25 26 25 25
19 19 19 19 19 20 20 20 21 20 20 21 22 22 23 23 22 21 20 20 19 19 18 18 17 17 17 18 19 20 20 20 20 20 20 20 21 21 21 22 22 22 21 21 20 20 18 17 16 15 15 16 17 17 16 16 18 20 20 20 20 20 21 22 24 25 26 28 29 30 30 29 27 26 26 20 17 17 21 23 25 26 26 27 27 26
19 19 19 19 19 20 20 20 20 20 21 21 21 22 22 22 21 21 21 20 19 19 19 18 18 17 17 18 19 20 20 19 19 19 19 20 20 20 20 20 20 19 18 16 16 15 14 12 11 11 12 11 11 13 15 16 18 19 19 19 20 20 20 22 23 25 26 27 27 27 27 27 27 26 25 20 16 13 15 17 21 26 28 29 29 30
Wind_Direction
300 302 303 303 302 301 300 300 300 300 301 301 301 301 302 301 301 300 299 298 297 297 296 295 295 295 296 296 296 296 296 296 295 295 295 294 294 294 294 293 293 292 291 291 291 291 292 292 293 293 293 293 293 292 292 291 290 290 289 289 288 287 287 286 285 284 283 282 282 281 280 279 279 278 277 277 277 278 278 277 276 275 273 272 272 272
302 302 302 302 301 301 301 301 300 300 300 301 301 301 301 301 300 300 299 298 297 296 295 296 297 297 298 298 297 296 295 295 294 294 294 294 294 294 294 294 293 293 292 292 292 293 293 293 294 294 294 293 293 292 291 290 290 289 288 287 287 286 285 284 283 282 282 281 281 281 280 279 278 277 277 276 276 275 274 273 273 272 272 271 271 270
302 302 302 302 302 301 301 302 302 300 299 299 299 300 300 300 299 298 298 298 297 297 296 298 299 299 299 298 297 296 295 294 294 294 294 294 294 294 295 295 294 294 293 293 293 293 293 293 292 292 292 292 292 291 290 289 288 288 287 286 285 284 284 283 282 281 280 280 280 279 278 277 276 276 275 274 273 272 271 270 270 270 270 269 268 267
300 301 302 303 302 300 299 301 301 301 300 299 299 299 299 299 298 298 297 298 299 299 299 300 300 299 299 298 297 296 295 295 294 294 294 295 295 295 295 294 294 293 293 292 292 291 291 291 290 290 290 290 290 290 289 289 288 288 287 286 286 285 284 283 282 282 281 280 279 278 277 276 276 276 275 275 273 272 271 270 270 270 270 269 268 267
298 299 301 302 302 300 299 300 300 300 300 300 300 300 301 300 300 299 298 299 300 301 301 301 300 299 299 298 298 297 296 296 296 295 295 295 295 294 294 293 292 292 291 291 290 289 289 289 289 289 290 290 290 290 289 289 289 288 288 287 287 286 286 285 284 284 283 282 281 280 280 281 281 282 281 280 279 278 277 276 275 275 274 273 272 271
297 297 298 299 299 299 299 300 300 301 301 301 301 301 301 301 301 300 299 301 302 301 301 301 300 300 299 299 298 298 298 297 296 295 295 294 293 293 292 292 291 291 290 290 289 288 288 288 289 290 290 291 290 290 289 289 289 288 288 288 287 287 287 286 286 286 286 285 285 285 286 286 287 286 285 285 284 283 282 281 280 279 278 277 276 275
295 295 295 295 295 296 297 298 300 301 302 302 303 302 302 301 301 301 301 301 301 301 301 301 301 301 300 300 300 299 298 297 296 295 294 293 293 292 291 291 290 290 289 288 287 287 287 288 289 290 291 291 290 290 289 289 288 288 288 288 288 288 289 288 288 288 287 287 287 286 286 286 286 285 284 283 283 282 282 281 280 279 278 277 277 276
294 294 294 294 295 296 296 297 298 299 300 302 303 305 305 304 303 303 302 301 301 301 303 303 303 302 301 301 300 299 298 297 296 295 294 294 293 292 291 291 290 289 288 288 287 288 288 289 290 290 290 290 289 289 288 288 288 289 289 289 290 290 290 289 288 288 287 286 286 285 285 284 284 283 283 282 281 280 280 279 278 277 277 276 275 275
291 292 293 293 294 295 296 297 297 298 299 301 303 305 305 305 305 305 305 304 304 304 305 305 304 303 302 301 300 299 297 296 295 295 294 293 293 292 291 290 290 289 288 288 289 289 289 289 290 290 290 289 289 289 289 289 289 289 290 290 290 289 289 288 287 287 286 286 285 285 284 284 283 282 281 281 280 279 278 277 276 275 275 274 273 273
287 288 289 291 291 291 291 295 299 301 301 301 300 300 301 303 306 308 308 308 307 307 306 304 303 303 302 302 300 299 298 296 295 294 293 292 291 290 290 290 289 289 289 289 289 289 289 289 289 289 289 289 289 289 289 289 289 289 289 288 288 287 287 287 286 286 286 285 285 285 284 284 283 282 280 280 279 278 277 276 275 274 273 272 272 271
285 286 287 289 290 290 290 296 302 306 306 304 302 301 302 305 308 310 310 309 308 307 306 303 302 301 301 301 301 300 299 297 296 295 294 293 292 291 290 290 289 289 289 289 289 288 288 288 288 288 288 288 288 288 288 288 288 287 287 287 287 286 286 286 286 286 286 285 285 285 284 283 282 281 280 279 278 277 276 275 274 273 272 271 270 270
284 286 288 290 296 301 303 304 306 307 308 308 307 307 307 308 309 309 308 306 306 306 305 303 301 300 299 299 300 300 299 298 297 297 297 295 295 294 293 292 291 290 290 289 289 289 289 288 288 288 288 287 287 287 287 287 286 286 287 287 286 286 286 286 286 285 285 285 284 284 283 282 281 280 279 278 277 276 275 274 273 272 271 270 269 269
285 288 295 300 305 307 308 308 308 308 309 309 309 309 309 309 309 307 304 302 302 302 302 302 301 300 299 299 299 298 298 296 296 297 297 297 297 297 296 295 294 293 292 292 291 290 290 290 289 288 288 287 286 286 286 286 286 286 286 286 286 286 286 285 285 285 284 284 283 282 282 281 280 279 278 277 276 274 273 272 271 271 270 269 268 267
293 302 308 308 307 307 307 308 308 308 308 308 308 307 306 307 306 305 302 300 299 300 300 300 299 299 300 300 300 299 298 297 298 298 297 297 297 298 297 296 295 294 293 292 291 290 290 290 290 289 288 287 286 286 286 286 286 286 286 286 286 286 285 285 285 284 283 283 282 281 280 279 278 277 276 275 274 273 272 271 270 269 268 267 267 266
312 313 310 307 306 305 306 307 307 306 306 306 306 305 305 304 303 302 300 299 299 300 300 300 299 299 300 301 302 302 301 300 299 299 298 298 298 298 298 297 295 294 293 292 291 290 291 290 289 288 288 287 286 286 286 287 287 287 287 286 286 286 286 285 285 284 283 282 282 281 280 279 278 277 276 275 274 273 272 270 269 268 267 266 265 264
313 310 307 305 304 304 305 305 305 305 304 305 304 304 303 302 301 300 299 298 299 299 300 302 303 303 303 304 305 305 305 303 301 299 299 299 298 299 299 297 295 293 292 292 291 291 291 290 289 288 287 286 286 287 287 287 287 287 287 287 287 287 286 286 286 285 284 284 283 282 281 279 278 277 276 275 274 273 272 270 269 268 267 266 265 265
308 306 303 302 302 303 304 304 304 303 303 303 302 301 299 299 298 298 297 296 297 298 300 302 304 305 306 307 307 307 307 306 303 301 300 299 299 299 299 297 294 292 292 292 291 291 291 289 288 287 287 287 287 288 288 289 289 289 289 288 288 288 287 287 286 286 285 284 283 282 281 280 279 278 277 276 275 274 273 272 271 270 269 268 268 267
303 303 302 301 301 302 303 303 303 302 301 301 300 299 297 296 296 295 293 292 294 298 302 304 304 302 303 305 305 306 308 308 305 303 301 299 298 299 300 297 293 292 292 292 291 291 290 289 289 289 288 288 288 289 289 289 289 289 289 289 289 288 287 287 286 285 285 284 283 282 282 281 280 279 278 277 277 276 275 274 273 272 271 270 270 269
301 300 300 300 300 301 301 300 300 300 300 299 298 296 294 295 295 293 292 294 297 301 303 303 301 299 298 298 300 304 307 308 306 303 300 298 298 299 301 298 294 291 291 292 292 292 291 290 289 289 289 289 289 289 289 289 289 289 289 288 288 288 287 287 287 287 286 286 285 284 283 282 281 281 279 278 277 276 275 275 274 273 272 271 270 269
299 298 297 298 298 298 298 297 297 297 296 295 294 293 292 292 295 297 299 301 302 302 301 299 297 296 296 297 299 302 306 307 305 301 299 297 298 299 301 299 296 293 292 293 294 294 292 292 291 290 290 289 289 288 289 289 289 289 289 289 289 289 289 289 288 287 287 286 285 284 283 282 281 280 279 278 277 276 275 274 273 272 272 271 270 269
296 295 294 295 295 295 294 294 294 294 292 291 291 291 292 297 301 303 305 304 303 301 299 296 295 296 297 298 299 301 304 305 303 300 298 298 298 299 301 300 297 294 294 295 296 295 294 293 292 291 291 290 290 290 290 290 290 290 289 289 289 289 289 288 287 286 285 284 284 283 282 281 281 280 279 278 277 276 275 274 273 272 271 270 269 268
292 292 293 293 292 290 289 288 289 290 290 290 292 295 300 305 306 305 304 303 301 299 297 295 295 296 296 296 296 298 301 302 299 297 297 297 297 299 301 302 299 296 295 296 298 298 296 295 294 293 293 292 291 291 291 290 290 289 289 289 289 288 288 287 286 285 285 284 283 282 281 281 280 279 278 277 276 275 274 273 272 271 270 268 268 267
290 291 292 292 290 287 285 285 287 290 295 299 302 303 304 304 303 301 300 299 298 297 296 295 295 295 295 294 295 297 299 299 298 296 295 292 295 299 303 303 301 298 296 297 299 300 299 297 296 295 294 292 291 291 290 289 289 289 289 289 289 288 288 287 286 285 285 284 283 282 281 280 279 278 277 277 276 275 274 273 271 270 269 268 267 266
291 291 291 290 289 288 288 291 296 301 305 306 305 303 301 300 298 297 297 296 296 295 295 296 296 297 296 296 297 298 299 300 299 297 294 292 294 298 302 304 303 300 298 299 300 301 300 298 296 295 294 292 291 291 290 290 290 290 290 290 289 289 288 287 286 286 285 284 283 282 281 280 280 279 278 277 276 275 275 274 273 272 271 269 268 267
292 291 290 291 292 294 297 301 304 305 305 304 303 301 301 300 299 298 297 296 296 296 297 298 299 298 299 300 300 300 301 302 301 298 294 293 295 298 302 304 303 300 299 300 301 301 300 298 297 296 295 293 293 292 291 290 291 291 291 290 290 289 288 287 286 286 285 284 284 283 283 282 282 281 280 279 278 277 276 275 274 273 272 271 270 269
291 291 291 294 297 300 302 302 302 302 302 301 301 301 302 302 301 300 298 297 298 300 302 301 300 299 301 301 301 301 303 304 303 299 294 294 296 298 301 304 303 300 300 301 302 302 300 299 298 298 297 295 294 293 292 291 291 290 291 291 290 290 289 289 288 287 287 286 285 285 284 284 283 282 281 280 279 278 277 276 275 274 273 272 271 270
292 293 295 298 300 302 302 302 301 301 301 301 301 301 302 302 301 300 299 300 302 304 304 302 299 299 301 301 301 301 304 305 304 301 297 295 295 297 301 304 304 303 301 302 302 301 300 298 298 298 297 296 295 294 293 293 292 292 292 292 291 290 290 289 289 288 287 286 285 285 284 283 282 281 280 279 278 277 276 275 274 273 273 272 271 270
298 299 301 302 302 302 302 302 302 302 302 301 301 301 301 301 300 299 299 301 304 304 301 298 296 297 299 300 301 302 303 303 303 302 302 299 296 296 301 305 306 304 304 303 303 302 300 297 296 297 297 297 297 297 297 297 296 295 294 292 291 290 289 288 288 287 286 285 284 284 283 282 281 280 280 279 278 277 276 275 274 274 273 272 270 268
305 305 304 304 304 304 304 303 302 302 302 301 301 301 301 300 298 296 297 300 301 300 298 297 296 296 296 299 301 301 302 301 303 306 308 305 299 297 302 305 306 306 306 306 306 304 302 300 299 299 300 300 301 301 300 299 297 296 294 292 291 290 289 288 287 286 286 285 284 284 283 282 282 281 280 280 279 278 277 276 276 275 274 273 270 268
310 309 308 307 306 306 305 304 303 302 302 302 302 302 302 299 295 293 294 297 297 296 295 296 296 296 298 300 301 301 301 302 306 310 312 308 301 300 304 305 305 306 308 309 309 307 304 304 304 304 304 304 303 302 301 300 298 295 294 292 291 290 289 289 288 288 288 287 286 286 285 284 283 282 282 281 280 279 279 278 277 276 275 273 271 269
312 311 310 309 308 307 306 305 304 304 304 304 304 304 302 299 295 293 293 294 293 292 292 294 295 296 297 299 299 297 299 303 306 311 311 306 301 301 304 304 304 305 307 308 307 305 306 307 308 308 308 306 304 302 301 300 298 296 295 295 294 292 292 291 291 291 291 290 289 288 287 286 285 284 283 282 281 280 279 278 278 277 275 273 271 269
311 310 309 308 308 307 307 306 306 306 306 307 306 304 302 299 297 295 294 293 291 290 291 292 293 293 293 291 290 289 291 299 303 307 309 304 300 301 303 302 302 304 305 303 300 296 301 306 309 309 309 307 305 303 302 301 299 297 297 297 295 294 294 295 295 294 293 292 291 290 289 287 286 285 283 282 281 280 279 278 277 276 274 272 270 268
309 308 308 307 307 307 307 308 308 308 308 307 306 305 303 301 300 299 296 293 291 291 291 291 291 292 291 290 288 288 290 295 299 304 306 304 301 301 302 302 301 302 303 302 298 294 292 293 302 305 307 306 305 304 302 301 299 298 297 296 295 294 296 297 297 296 295 294 293 292 290 288 287 286 284 284 283 281 279 278 277 275 273 271 269 267
308 308 308 308 308 309 309 309 309 309 309 307 307 306 305 303 303 301 299 296 294 292 291 289 289 290 290 291 290 291 292 294 298 302 305 303 301 300 301 301 301 302 302 302 300 298 295 294 297 302 305 305 305 304 303 301 300 299 297 296 294 294 295 297 298 297 295 294 293 292 291 290 289 288 286 285 284 283 281 279 277 275 271 269 267 266
309 308 309 310 310 311 312 311 311 310 310 309 308 307 307 306 305 303 301 298 296 294 292 289 287 286 286 288 289 291 293 295 298 301 303 301 299 299 300 299 299 300 300 300 300 300 299 297 298 300 302 304 304 304 303 303 302 301 300 297 295 294 294 295 295 295 294 293 292 291 291 291 290 289 288 286 284 283 282 281 279 276 273 270 267 265
308 309 310 312 312 313 313 313 312 311 310 310 309 309 308 307 306 304 302 300 298 297 294 290 288 286 284 283 283 284 288 293 296 299 299 297 296 296 296 295 296 297 296 297 298 299 299 299 300 300 300 300 301 303 305 306 306 305 303 300 298 296 295 294 293 293 292 292 291 291 291 291 290 289 288 286 285 283 282 281 280 278 275 272 269 266
308 309 311 312 313 313 313 312 312 311 311 311 310 310 309 307 306 305 303 300 298 297 296 294 291 288 285 282 281 282 284 289 292 294 294 294 293 292 291 291 292 293 292 293 295 297 298 299 299 299 299 295 296 302 305 308 309 308 305 303 302 300 298 296 294 293 291 291 291 291 291 291 290 289 288 288 286 285 283 281 279 277 275 273 270 268
310 311 312 313 313 313 312 312 311 311 310 310 310 309 308 307 305 303 302 300 298 297 298 297 294 291 290 287 285 285 286 287 289 291 292 292 291 289 288 288 289 290 289 289 290 292 295 295 297 298 296 297 298 300 302 306 307 307 306 305 304 301 299 297 296 295 293 292 292 292 291 291 290 289 289 288 288 286 284 282 280 278 275 274 272 269
311 311 312 312 313 312 311 310 309 309 309 308 307 307 307 305 304 304 303 301 300 299 298 296 295 294 293 292 291 289 289 289 290 291 292 292 290 288 287 286 288 289 289 287 286 287 288 290 292 294 295 298 300 301 302 303 303 304 305 307 307 304 302 301 300 299 296 294 294 293 293 292 291 290 289 288 287 285 282 281 281 279 277 274 272 270
312 311 311 312 311 311 309 308 308 307 308 307 307 306 306 305 306 308 307 305 304 303 301 299 298 296 295 294 293 292 292 292 292 292 293 292 291 290 288 286 286 287 288 287 285 284 284 285 287 289 291 292 295 299 300 300 300 301 304 306 307 306 305 304 302 300 298 295 293 293 293 294 293 292 290 288 285 283 281 281 281 280 278 274 270 269
312 311 311 311 310 309 308 307 307 307 307 307 308 308 308 308 309 310 311 310 309 309 307 305 304 302 302 300 297 296 295 294 294 294 295 295 295 293 289 287 285 285 286 286 286 286 285 285 287 289 290 291 292 293 295 295 297 298 300 300 299 299 301 302 301 300 299 298 297 296 295 295 295 294 291 289 287 284 283 281 280 279 278 274 268 264
311 310 310 310 310 309 309 308 307 307 308 308 308 307 308 309 309 310 311 312 312 312 312 310 308 307 307 306 305 303 301 299 298 298 297 298 297 295 292 288 286 286 286 288 289 289 288 288 288 288 288 289 290 291 292 293 295 297 297 296 297 299 302 303 303 304 304 302 301 300 299 297 295 294 293 291 290 288 285 282 280 278 276 273 269 264
309 309 309 309 309 309 309 309 309 310 310 310 309 308 308 309 309 309 309 309 310 310 310 309 308 307 306 306 308 309 308 305 303 301 300 299 299 298 296 293 291 289 288 289 290 291 290 290 287 285 285 286 287 287 289 291 295 296 296 296 298 301 305 307 308 308 308 305 303 302 300 298 297 297 296 294 292 290 287 284 280 277 275 272 270 267
308 308 309 309 309 310 310 310 310 311 311 310 309 308 309 309 309 309 308 307 307 308 308 308 307 306 305 305 307 310 311 310 308 305 302 303 304 304 302 299 296 294 291 287 287 290 291 292 290 287 287 286 285 284 285 288 291 294 295 296 297 297 296 300 304 306 307 307 306 304 303 302 301 300 299 297 294 291 288 285 282 280 277 275 272 269
309 309 310 310 311 311 310 310 311 311 310 310 309 308 311 311 310 309 309 307 307 306 306 307 307 307 306 306 308 311 312 312 312 310 307 309 310 310 306 303 300 298 295 290 287 286 287 289 290 290 290 288 285 282 282 284 287 290 293 296 297 296 294 296 299 302 304 306 307 307 307 306 305 303 302 301 299 296 292 288 285 283 281 280 276 272
311 312 312 311 312 311 310 310 311 312 311 311 310 310 311 312 312 310 309 307 306 306 306 306 306 305 305 306 308 310 311 312 313 313 312 311 311 311 309 307 305 302 299 295 291 287 284 283 285 288 290 290 287 282 279 280 283 287 292 297 300 300 300 300 301 303 304 306 307 308 308 309 309 308 306 304 304 302 298 295 291 288 286 285 282 278
313 312 311 311 311 311 311 311 312 313 313 312 312 312 313 312 312 311 310 308 306 306 306 307 305 303 302 304 306 307 309 310 311 313 313 314 314 314 313 312 310 307 302 298 294 291 286 283 282 282 282 284 286 285 284 283 284 287 293 298 301 303 303 304 305 306 306 306 307 308 310 310 312 312 309 308 308 308 306 304 301 297 294 291 288 285
312 311 311 311 311 311 312 313 313 313 313 313 313 314 314 313 312 310 309 309 308 307 306 307 306 304 304 305 305 306 307 307 308 310 312 314 315 316 317 316 314 312 308 304 299 295 291 288 284 279 274 271 273 279 283 286 289 293 296 299 301 302 303 304 306 308 309 308 308 309 311 311 310 310 310 311 312 313 314 312 310 306 303 300 297 294
310 310 310 310 310 310 311 312 313 313 312 312 313 314 314 314 313 311 309 309 308 307 306 305 304 304 305 305 306 306 308 308 308 309 311 313 316 317 318 319 318 317 315 312 309 306 301 297 291 282 273 262 260 267 276 285 292 296 299 301 302 303 304 306 308 310 312 312 311 311 311 311 309 309 312 313 314 316 317 317 315 313 312 309 308 306
309 309 309 310 309 309 310 311 312 312 310 311 311 312 313 314 313 312 311 310 308 307 306 304 303 303 304 305 306 307 308 309 309 310 311 313 315 317 318 320 321 321 321 320 321 320 318 314 307 298 284 265 256 257 266 281 293 300 303 304 305 305 306 308 310 312 313 314 314 313 313 313 313 315 318 317 315 316 319 320 320 319 320 320 319 317
310 309 309 309 309 309 309 310 310 309 308 309 309 310 311 311 312 312 313 311 310 308 307 305 303 303 303 304 305 307 308 308 308 309 310 312 315 317 318 319 321 323 323 324 325 326 327 326 324 319 311 292 272 262 267 282 294 301 304 305 307 309 309 310 311 313 314 315 316 315 316 318 320 322 323 321 318 317 321 322 323 323 325 326 327 326
Height
747 745 744 743 741 739 736 736 735 733 730 728 728 727 725 724 723 722 721 720 718 717 715 714 713 711 709 708 707 705 704 703 701 700 698 697 695 694 692 691 689 688 686 685 683 682 680 679 678 676 675 673 672 671 669 668 667 666 665 664 663 662 661 660 659 658 658 657 656 655 655 654 653 653 652 652 651 650 649 649 648 648 648 648 647 647
746 744 743 741 740 737 734 733 733 732 729 727 725 724 723 722 720 719 718 717 716 715 714 712 711 709 707 706 704 703 701 700 698 697 696 694 693 691 689 688 686 685 683 682 680 679 677 676 675 673 672 671 669 668 667 665 664 663 662 661 660 659 658 657 656 655 655 654 653 653 652 651 650 650 649 648 648 647 647 646 646 645 645 644 644 644
745 742 740 739 738 736 733 731 730 730 728 726 724 723 722 720 718 717 716 715 714 713 712 710 708 707 705 703 701 700 698 697 696 694 693 691 690 688 687 685 683 682 680 679 678 676 675 673 672 671 669 668 667 665 664 663 661 660 659 658 657 656 655 654 653 652 651 651 650 649 649 648 648 647 646 645 645 644 644 643 643 643 642 641 641 641
744 741 738 737 736 734 732 730 728 727 726 724 723 721 720 718 717 716 714 713 712 711 709 708 706 704 702 700 699 697 696 695 693 692 690 689 687 686 684 683 681 679 678 676 675 674 672 671 670 668 667 665 664 663 661 660 658 657 656 654 653 652 651 650 649 648 648 647 647 646 645 644 644 643 643 642 641 641 640 639 639 639 639 639 638 638
743 741 738 736 734 732 730 729 727 725 723 722 721 719 718 717 716 714 713 712 710 708 707 705 704 702 700 698 696 695 693 692 691 689 688 686 685 683 681 680 678 677 675 674 673 671 670 668 667 665 664 662 661 659 658 657 655 654 653 651 650 649 648 647 646 645 645 644 643 642 642 641 640 640 639 638 638 637 636 636 635 635 635 635 635 635
742 740 738 735 733 730 728 727 725 724 722 720 719 718 717 716 714 713 711 710 708 706 704 703 701 700 698 696 694 693 691 690 688 687 685 683 682 680 678 677 675 674 673 671 670 668 667 665 664 663 661 659 658 657 655 653 652 651 650 648 647 646 645 644 643 642 641 641 640 639 638 638 637 637 636 635 635 634 634 633 633 632 632 632 632 632
739 738 737 735 732 729 727 725 724 723 721 719 718 717 716 714 713 711 710 708 706 704 702 700 699 698 696 694 693 691 689 687 685 684 682 681 679 677 676 674 673 671 670 668 667 665 664 663 661 659 658 657 655 653 652 651 649 648 647 646 644 643 642 641 640 639 639 638 637 636 635 635 634 634 633 633 632 632 631 630 630 629 629 629 629 629
738 736 735 733 730 727 725 724 723 722 721 719 717 715 714 712 711 709 708 706 704 702 700 698 696 695 694 692 691 689 687 685 683 681 679 678 676 674 673 671 670 668 667 665 664 663 661 660 658 657 655 654 652 651 649 648 646 645 644 643 642 640 639 639 638 637 636 635 634 633 633 632 631 631 630 629 629 629 628 628 627 627 626 626 626 626
738 734 732 730 729 727 723 722 722 721 720 718 717 714 712 709 707 706 704 703 702 701 699 697 694 693 691 690 689 687 684 683 681 679 677 675 673 672 670 668 667 665 664 663 661 660 658 657 655 654 652 651 649 648 646 645 643 642 641 640 639 638 637 636 635 634 633 632 632 631 630 629 629 628 627 627 626 626 625 625 624 624 624 623 623 623
736 733 730 728 727 726 724 721 720 719 719 718 716 714 712 708 705 703 701 700 699 699 698 696 693 691 689 687 686 684 682 680 678 676 675 673 671 669 668 666 664 663 661 660 658 657 656 654 653 651 649 648 646 645 644 642 641 640 639 637 636 635 634 633 633 632 631 630 629 628 627 627 626 625 624 624 623 623 622 622 621 621 621 620 620 620
733 731 729 727 725 725 723 722 719 718 717 716 714 712 710 709 706 703 700 698 697 696 696 694 692 690 687 685 683 681 679 677 674 673 672 670 669 667 665 663 662 660 659 657 656 654 653 651 649 648 647 645 644 642 641 640 638 637 636 635 634 633 632 631 630 629 628 627 626 625 625 624 623 622 621 621 620 620 619 619 619 618 618 617 617 617
731 729 728 726 724 723 722 720 718 717 716 714 711 709 708 707 707 705 702 698 696 694 693 691 689 688 686 684 681 679 677 675 672 670 669 667 666 664 663 661 659 657 656 654 652 651 649 648 647 645 643 642 641 639 638 637 635 634 633 632 631 630 629 628 627 626 625 624 624 623 622 621 620 619 619 618 617 617 616 616 615 615 614 614 614 613
729 728 727 725 724 723 721 719 717 715 714 713 711 708 706 706 705 705 702 699 696 694 692 688 686 684 683 683 680 678 675 673 670 668 667 665 664 663 661 658 656 654 653 651 649 648 646 645 643 642 641 639 638 637 635 634 633 632 630 629 628 627 626 625 624 624 623 622 621 620 619 618 617 616 615 615 614 614 613 612 612 612 611 611 610 610
728 727 726 724 723 721 720 718 716 714 713 712 711 709 707 706 705 703 701 698 695 693 691 688 684 682 681 680 679 677 674 671 669 667 665 663 663 661 659 657 654 652 651 649 647 645 644 643 641 639 638 636 635 634 632 631 630 629 628 627 625 624 623 622 621 620 619 619 618 617 616 615 614 613 612 611 611 610 609 609 609 608 608 607 607 606
728 727 725 723 721 720 719 718 716 714 712 711 710 709 707 705 703 702 699 696 693 690 688 686 682 680 678 678 677 675 673 670 668 665 663 661 660 659 658 655 652 650 649 647 645 643 641 640 639 637 635 634 632 631 630 629 627 626 625 624 622 621 620 619 618 617 616 615 614 613 612 611 610 609 609 608 607 607 606 605 605 604 604 603 603 602
728 727 725 722 720 719 718 717 715 713 712 710 709 708 706 704 702 700 698 694 692 689 687 684 680 677 674 674 674 674 672 669 667 664 662 659 658 657 657 654 651 648 646 645 643 640 639 638 636 634 633 631 629 628 627 626 624 623 622 620 619 618 617 616 614 614 613 612 611 610 609 608 607 606 605 604 604 603 602 602 601 600 600 599 599 598
728 726 724 722 719 718 716 716 715 713 711 710 708 707 705 703 700 698 696 693 691 688 686 684 680 676 672 669 670 671 671 668 665 663 660 657 655 654 655 653 649 646 643 642 641 639 637 635 634 632 630 629 627 626 624 623 622 620 619 617 616 615 614 612 611 610 609 608 607 606 605 604 604 603 602 601 600 599 599 598 597 596 596 595 595 594
727 725 723 721 718 717 715 714 713 712 710 708 706 704 702 700 698 696 694 692 690 688 685 683 681 678 674 669 667 668 669 668 665 661 658 655 653 652 652 651 648 644 642 640 638 637 635 633 631 630 628 626 625 624 622 620 619 617 616 614 613 612 610 609 608 607 606 605 604 603 602 601 600 599 598 597 596 596 595 594 593 593 592 591 591 590
725 724 722 720 718 716 715 713 712 711 709 707 704 702 699 698 696 695 693 691 689 688 685 683 680 678 675 671 667 666 667 667 664 660 657 653 650 649 649 648 645 642 639 637 636 634 633 631 629 627 626 624 623 621 619 618 616 615 613 612 610 609 608 606 605 604 603 602 600 599 598 597 596 595 594 594 593 592 591 590 589 589 588 588 587 587
723 722 721 719 717 715 713 712 711 709 708 705 703 701 698 696 694 693 691 690 688 687 685 683 679 676 673 670 667 665 666 665 663 659 656 652 648 647 647 646 643 640 637 635 634 633 631 629 626 624 623 621 620 618 617 615 614 612 610 609 607 606 605 604 602 601 599 598 597 596 595 594 593 592 591 590 589 588 587 587 586 585 584 584 584 583
722 720 719 718 717 714 712 710 708 707 706 704 702 699 697 695 693 691 690 688 687 685 683 681 678 675 673 669 666 664 665 664 662 658 654 650 647 645 645 644 641 638 635 632 631 630 629 626 624 622 620 619 617 616 614 612 611 609 608 606 604 603 602 600 599 598 596 595 594 593 591 590 589 588 587 586 585 584 584 583 582 581 581 580 579 579
721 718 717 716 715 713 711 708 706 705 704 702 700 698 696 694 692 690 688 687 685 683 681 678 676 674 672 669 666 664 664 663 662 658 654 649 645 642 643 642 640 636 633 630 629 628 626 624 622 620 618 616 614 613 611 610 608 606 604 603 602 600 599 597 596 594 593 591 590 589 588 587 586 584 584 583 582 581 580 579 578 578 577 576 576 575
720 717 715 714 713 711 709 707 704 703 702 701 700 698 696 694 693 690 688 686 684 682 679 677 674 672 670 668 665 663 662 662 660 658 654 649 644 640 640 640 638 635 631 629 627 626 624 622 619 617 615 614 612 610 609 607 605 603 602 600 599 597 595 594 592 591 589 588 587 585 584 583 582 581 580 579 578 577 576 575 574 573 573 572 571 570
718 716 714 712 711 709 707 705 703 702 701 700 698 697 695 693 692 690 687 685 683 680 678 675 673 670 668 666 663 662 660 660 659 657 654 649 644 640 639 639 636 633 629 627 626 624 622 619 617 615 613 611 609 607 605 604 602 600 599 597 596 594 592 591 589 588 586 585 584 582 581 579 579 577 576 575 574 573 572 571 570 569 568 567 566 566
716 714 712 710 709 708 706 705 703 702 700 699 697 695 693 691 690 688 685 683 681 679 677 674 671 668 666 664 662 660 658 658 657 656 653 648 643 639 638 638 636 632 628 625 624 623 620 617 614 612 610 608 606 604 603 601 599 598 596 594 593 591 589 588 586 584 583 582 580 579 577 576 575 574 572 571 570 569 568 567 566 565 564 563 562 562
714 712 711 709 708 706 705 703 702 701 699 698 696 694 692 690 688 685 683 681 680 678 676 673 670 667 665 663 660 658 656 656 655 654 652 648 643 638 636 636 634 631 627 623 622 620 618 614 611 609 607 605 603 601 599 598 596 595 593 592 590 588 586 585 583 581 580 579 577 575 574 573 571 570 569 568 566 565 564 563 562 561 560 559 559 558
712 710 709 708 706 704 703 702 700 698 697 696 695 693 691 689 686 684 682 680 678 677 675 673 669 666 663 661 659 656 655 654 653 652 650 647 643 638 635 634 633 630 626 622 619 618 616 613 609 606 604 602 600 599 597 595 594 592 590 589 587 585 584 582 580 579 577 575 574 572 571 569 568 566 565 564 563 562 560 559 559 557 557 556 555 553
710 708 707 706 704 703 701 699 698 696 695 694 693 691 690 688 686 683 680 679 678 677 675 673 669 666 663 660 658 655 654 653 651 650 648 646 642 638 635 634 632 629 626 621 617 615 614 611 608 605 602 600 599 597 595 593 591 589 588 586 584 582 581 579 577 575 574 572 570 569 567 566 564 563 561 560 559 558 557 555 554 554 553 552 550 548
708 707 705 703 702 700 699 697 696 694 693 692 691 689 688 687 685 683 680 679 678 676 674 671 669 666 663 660 657 654 652 651 649 648 647 645 641 638 635 633 631 629 626 620 615 611 609 608 606 604 601 599 597 595 593 591 589 587 584 582 580 579 577 575 574 572 570 569 567 565 564 562 561 559 558 556 555 554 553 552 551 550 549 548 546 544
706 704 703 701 700 698 697 695 693 692 691 690 688 688 687 685 684 682 680 678 677 675 673 670 668 666 663 660 656 653 650 648 648 647 646 644 640 636 634 632 630 628 626 622 615 608 604 603 603 603 600 598 595 593 591 589 586 584 581 579 577 575 574 572 571 569 567 566 564 562 561 559 558 556 554 553 552 550 549 548 547 546 545 543 541 539
704 702 701 699 698 696 695 693 692 690 689 688 687 686 685 683 682 680 679 677 676 674 672 669 667 665 663 660 657 653 648 646 646 646 646 643 639 636 634 631 629 627 626 624 619 612 603 599 598 599 599 597 594 592 589 587 584 582 579 577 574 573 571 569 568 566 564 563 561 559 558 556 554 553 551 549 548 546 545 544 544 543 541 539 537 535
703 701 699 698 696 694 693 692 690 689 688 686 685 684 683 681 680 679 677 676 674 673 671 668 666 664 662 661 658 653 649 645 644 645 644 642 639 635 634 631 628 626 624 624 622 618 610 601 596 595 596 595 593 589 587 585 583 580 578 575 573 570 568 567 565 564 561 559 558 556 554 552 551 549 547 546 544 543 541 540 539 539 537 535 533 531
701 700 698 696 695 693 692 690 689 688 686 685 683 682 681 679 678 677 676 674 673 671 670 668 665 663 661 659 656 653 649 646 644 643 643 642 638 635 632 630 628 625 623 621 620 618 614 607 601 596 594 592 590 587 584 582 580 578 576 574 571 568 566 564 563 561 559 556 554 552 550 549 547 545 543 542 540 539 537 535 535 534 533 532 529 527
700 698 697 695 693 692 691 689 688 687 685 683 682 681 679 678 676 675 674 673 671 670 668 666 664 662 659 657 654 651 648 645 643 643 642 640 638 634 631 629 627 624 621 619 617 615 612 608 604 599 594 589 587 585 583 580 578 576 574 572 570 567 564 562 560 558 556 554 551 549 547 544 543 541 539 538 536 534 533 531 530 529 528 527 526 524
699 697 696 694 693 691 689 688 687 685 684 682 681 679 678 676 675 673 672 670 669 668 666 664 663 661 659 656 653 649 646 643 642 641 640 639 637 634 631 628 626 624 621 618 615 613 609 606 603 600 596 590 585 582 580 579 577 574 572 570 568 566 563 561 559 556 554 551 549 546 544 541 539 537 535 534 532 530 528 527 525 524 523 522 521 520
698 696 694 693 692 690 688 687 685 684 682 681 679 678 676 675 673 672 670 668 667 665 663 662 660 659 657 655 653 649 645 642 640 639 639 637 636 633 630 627 625 623 621 617 614 612 609 605 602 599 596 591 585 580 577 576 574 573 570 568 566 564 561 559 557 554 552 549 546 543 541 539 536 534 532 529 528 526 524 523 521 519 518 517 516 515
697 695 693 692 691 689 688 686 684 683 681 679 678 676 675 673 672 670 668 666 664 663 661 659 658 656 654 653 650 648 644 642 639 638 636 635 634 632 629 626 624 622 620 617 614 611 608 604 600 597 594 591 587 581 576 574 572 570 568 566 564 562 559 557 555 553 550 547 544 541 539 536 534 531 529 526 524 522 520 518 516 514 513 511 510 509
696 694 693 691 690 688 687 685 683 682 680 678 677 675 673 672 670 668 666 664 662 661 659 657 655 653 651 649 647 645 643 640 638 635 634 633 632 630 628 625 622 620 619 617 614 611 608 604 600 596 592 589 585 582 578 575 572 569 566 564 562 559 557 554 553 551 548 545 542 539 536 534 531 529 525 523 521 519 516 513 511 509 508 506 504 503
695 693 692 691 689 688 686 684 683 681 679 678 676 674 672 670 668 666 664 663 661 659 657 655 653 650 648 646 644 642 640 638 636 634 632 631 629 628 626 623 621 618 617 615 613 611 608 605 601 597 593 589 584 580 578 575 573 569 566 562 559 556 554 553 551 549 546 543 540 536 533 530 528 526 523 520 518 515 512 509 507 505 503 502 499 498
694 693 691 690 688 687 685 684 682 680 678 676 674 673 671 669 667 664 663 661 659 657 655 653 651 648 646 643 642 640 638 635 634 632 630 628 627 625 624 622 619 617 614 613 611 609 607 604 600 597 594 590 586 581 577 574 572 569 567 563 559 554 551 550 548 546 544 541 538 534 531 528 525 523 520 517 514 512 509 506 503 501 499 498 496 493
694 692 690 689 687 686 684 683 681 679 677 675 673 671 669 668 665 663 661 659 657 655 653 651 648 646 643 641 639 637 635 633 631 629 628 626 624 623 621 619 617 615 613 611 609 607 605 602 599 596 593 590 586 582 578 574 571 569 567 564 559 554 550 548 546 544 541 539 536 533 529 526 522 519 516 514 511 508 506 503 500 497 495 493 492 490
693 691 690 688 686 684 683 681 679 678 676 674 672 670 668 667 665 663 660 658 655 653 651 649 647 644 641 638 636 634 633 631 629 627 625 624 622 621 619 617 615 613 611 609 607 605 603 600 598 595 592 589 586 582 577 573 570 568 566 563 559 554 549 545 543 542 540 537 534 530 527 524 520 516 513 510 507 504 501 499 496 494 491 489 487 485
693 691 689 687 685 683 682 680 678 676 674 673 671 669 667 666 664 662 659 657 654 652 650 648 646 643 640 637 634 632 630 629 627 625 624 622 620 619 617 615 613 611 609 608 605 602 600 598 596 593 590 588 585 582 577 573 569 566 564 561 559 555 550 544 540 539 538 535 531 528 524 521 517 514 510 507 504 500 497 494 492 489 487 485 483 481
692 690 688 686 684 683 680 678 677 675 673 671 669 668 666 664 663 661 659 656 654 651 649 647 645 642 639 636 633 630 628 626 624 623 621 620 618 617 615 613 611 610 608 606 604 601 598 595 593 591 588 586 584 580 577 573 569 565 562 559 558 555 551 546 541 538 535 532 529 525 522 519 514 511 507 504 500 497 493 490 487 484 482 480 479 477
691 689 687 685 683 682 679 678 676 674 672 670 668 666 664 663 661 659 658 655 653 650 648 646 644 641 638 635 632 629 626 624 622 620 619 617 616 615 613 612 610 608 606 604 602 600 597 594 591 588 586 584 582 579 576 572 568 564 560 558 556 553 549 546 542 539 535 530 527 523 519 516 513 509 504 500 496 493 490 487 484 481 478 476 474 473
690 688 686 684 683 681 678 677 675 673 671 668 667 665 663 661 660 658 656 654 652 649 647 645 643 641 638 634 631 629 626 623 620 618 616 615 614 612 611 609 608 606 604 602 599 598 596 593 590 587 584 582 579 576 573 570 567 563 559 556 554 551 547 544 541 538 534 530 526 521 517 514 511 507 502 498 494 490 486 483 480 478 475 473 471 469
689 687 685 683 681 679 678 676 674 672 669 667 665 663 662 660 658 657 655 653 651 648 646 644 642 640 637 634 631 629 626 623 619 617 615 613 612 610 609 607 606 604 602 600 597 595 593 590 588 586 584 581 577 573 570 568 565 563 559 556 553 549 546 542 539 536 533 530 525 520 516 512 508 504 499 495 491 488 484 480 478 475 473 470 468 465
688 686 684 683 680 678 677 675 673 671 669 666 664 662 661 659 658 656 653 651 649 648 645 643 641 639 636 633 631 629 626 623 619 617 614 612 610 609 607 605 603 601 599 597 595 592 590 587 585 583 582 579 576 572 568 565 563 561 558 555 552 549 545 541 538 534 532 528 524 520 516 512 508 503 498 494 489 485 481 478 474 472 469 467 464 462
688 686 684 682 680 678 676 674 672 670 668 666 663 661 659 658 656 655 653 650 648 647 644 642 640 637 635 632 629 627 625 622 619 616 614 612 609 607 605 603 601 599 597 594 592 589 587 584 582 580 578 576 574 571 568 564 562 560 557 554 552 548 544 540 536 533 530 527 523 519 515 512 508 504 499 494 489 484 479 475 472 469 466 464 462 459
686 685 683 681 679 677 675 673 671 669 667 665 663 660 658 656 654 653 651 649 647 645 643 641 639 637 634 631 628 626 624 621 618 616 613 611 609 607 605 602 600 598 595 592 589 587 584 581 578 576 574 573 571 570 567 564 561 559 556 554 551 548 544 540 536 533 529 526 522 518 514 510 506 503 499 494 489 484 479 474 470 467 464 461 459 456
685 683 682 680 678 676 674 673 671 669 667 665 663 660 658 655 653 651 650 648 646 644 642 640 638 636 633 630 627 625 623 620 618 615 613 611 609 607 605 602 600 598 595 592 589 585 583 579 575 572 570 570 570 569 567 564 561 558 555 552 549 547 544 540 536 532 529 525 522 517 513 509 505 502 498 494 489 484 479 474 469 465 462 459 456 453